sat.trackr.live / text

‹ back to catalog

KUIPER-00532

NORAD 69604 · 2026-140N

PAYLOAD ACTIVE UNKNOWN

§ Identity

Operator
Country
US
Launch date
2026-06-17
Launch site
FRGUI
Launch vehicle
Mass (kg)
RCS (m²)

External: N2YO · Heavens-Above · Gunter

§ Orbital elements

Epoch: 2026-09-20T04:00:03.000096Z

Period
96.38 min
Inclination
51.8958°
Eccentricity
0.0004184
Mean motion
14.94139205 rev/d
Perigee alt
582.1 km
Apogee alt
588.0 km
Semi-major
6,963.2 km
B*
-3.7810e-3
RAAN
303.5959°
Arg perigee
237.2638°
Mean anomaly
13.2759°
Rev number
516

§ Raw data

KUIPER-005321 69604U 26140N   26263.16670139 -.00040893  00000+0 -37810-2 0  99962 69604  51.8958 303.5959 0004184 237.2638  13.2759 14.94139205  5162

JSON: /api/v1/satellites/69604 · /tle

For live sub-satellite position, see the globe view (requires WebGL).

§ Visibility from observer

Set your observer location to see the next 7 days of passes ≥ 10°. The values pass through the URL so the page stays shareable.

No JS? Fill the form by hand. The geolocation button needs JavaScript.